Location: Guferjoch
(46.7462°N, 8.4506°E)
Time: 00:19:23
(UTC+00:00)

Cosmos 1378 Rocket - Pass Details

Date: 14 July 2020
Orbit: 602 x 626 km, 82.5° (Epoch: 03 August)

Event Time Altitude Azimuth Distance (km) Brightness Sun altitude
Rises 02:16:19 0° 350° (N) 2,899 7.7 -12.2°
Reaches altitude 10° 02:18:32 10° 350° (N) 1,993 6.8 -12.0°
Maximum altitude 02:22:57 85° 265° (W) 630 3.5 -11.5°
Drops below altitude 10° 02:27:23 10° 174° (S) 1,989 5.8 -11.0°
Enters shadow 02:28:30 - 174° (S) 2,444 6.2 -10.9°
